Regional Weather Roundup
Issued by NWS San Angelo, TX

Home | Current Version | Previous Version | Text Only | Print | Product List | Glossary On
Versions: 1 2 3 4 5 6 7 8 9 10 11 12 13 14 15 16 17 18 19 20 21 22 23 24 25 26 27 28 29 30 31 32 33 34 35 36 37 38 39 40 41 42 43 44 45 46 47 48 49 50
000
ASUS44 KSJT 190310
RWRSJT
WEST CENTRAL TEXAS REGIONAL WEATHER ROUNDUP
NATIONAL WEATHER SERVICE SAN ANGELO TX
1000 PM CDT THU SEP 18 2014

NOTE: "FAIR" INDICATES FEW OR NO CLOUDS BELOW 12,000 FEET WITH NO
SIGNIFICANT WEATHER AND/OR OBSTRUCTIONS TO VISIBILITY.

TXZ049-054-064>066-071>073-076>078-098-099-113-114-127-128-139-140-
154-155-168>170-190400
...LOCATIONS ACROSS WEST CENTRAL TEXAS...

CITY           SKY/WX    TMP DP  RH WIND       PRES   REMARKS
SAN ANGELO     CLOUDY    72  69  90 E5        29.96R
ABILENE        CLOUDY    73  71  93 S8        29.96R
DYESS AFB      CLOUDY    72  67  84 S6        29.95R
JUNCTION       MOCLDY    74  68  81 E14       29.95S
SWEETWATER     CLOUDY    70  68  93 NE3       30.02R
BROWNWOOD      CLOUDY    72  72 100 SE5       29.95R
COLEMAN        CLOUDY    73  70  92 SE8       29.96R
SONORA         CLOUDY    75  68  78 E15G23    29.99R
OZONA          LGT RAIN  73  68  83 E13G21    29.96R
BRADY          CLEAR     70  70 100 SE9       29.95R
$$

TEXAS PANHANDLE/OKLAHOMA PANHANDLE

CITY           SKY/WX    TMP DP  RH WIND       PRES   REMARKS
AMARILLO       PTCLDY    64  60  87 SE9       30.05R
BORGER         CLEAR     70  58  65 S5        30.02R
CANADIAN       CLEAR     67  59  74 CALM      29.98R
DALHART        CLEAR     64  59  83 S5        30.06R
DUMAS          CLEAR     61  58  88 S5        30.04R
GUYMON         NOT AVBL
HEREFORD       MOCLDY    65  64  94 SE5       30.06R
PAMPA          CLEAR     61  55  81 S7        30.03R
PERRYTON       CLEAR     67  55  64 S8        30.00R
$$

SOUTHERN PANHANDLE/SOUTH PLAINS/ROLLING PLAINS

CITY           SKY/WX    TMP DP  RH WIND       PRES   REMARKS
LUBBOCK        CLOUDY    68  65  90 E5        30.02R
SNYDER         CLOUDY    69  66  89 E7        30.00R
CHILDRESS      CLOUDY    73  69  87 CALM      29.99R
SEMINOLE       DRIZZLE   67  66  96 E7        30.02R
$$

PERMIAN BASIN

CITY           SKY/WX    TMP DP  RH WIND       PRES   REMARKS
MIDLAND        CLOUDY    72  70  93 E12       29.97R
ODESSA         RAIN      71  69  93 E12       29.98R FOG
WINK           CLOUDY    73  68  84 E14       29.93R
$$

FAR WEST/SOUTHWEST MOUNTAINS/TRANS PECOS

CITY           SKY/WX    TMP DP  RH WIND       PRES   REMARKS
ALPINE         MOCLDY    69  66  89 N5        30.08R
DRYDEN           N/A     83  72  69 E8        29.89R
EL PASO        LGT RAIN  67  65  93 N7        29.98R
FORT STOCKTON  MOCLDY    72  69  90 E9        29.95R
GUADALUPE PASS CLOUDY    65  63  93 NE24      30.06R
MARFA          MOCLDY    70  64  83 NE6       30.06R
PECOS          MOCLDY    72  68  87 E13       29.93R
$$

DALLAS/FORT WORTH METROPLEX

CITY           SKY/WX    TMP DP  RH WIND       PRES   REMARKS
DFW AIRPORT    MOCLDY    78  70  76 S9        29.92R
FTW MEACHAM    CLOUDY    78  70  76 S7        29.92R
DAL-EXECUTIVE  MOCLDY    77  70  79 SE3       29.93R
GRAND PRAIRIE  MOCLDY    77  68  73 S5        29.93R
ADDISON        MOCLDY    79  66  65 SE6       29.93R
MESQUITE       MOCLDY    73  64  73 S5        29.94
LANCASTER      MOCLDY    73  66  79 CALM      29.94R
$$

NORTH CENTRAL TEXAS

CITY           SKY/WX    TMP DP  RH WIND       PRES   REMARKS
SHRMAN/DENISON PTCLDY    75  69  81 CALM      29.95R
GAINESVILLE    MOCLDY    74  69  85 N5        29.95R
BRIDGEPORT     CLOUDY    75  69  81 E5        29.94R
DENTON         CLOUDY    79  71  76 SE7       29.92R
WAXAHACHIE     CLOUDY    73  67  80 CALM      29.94R
GRANBURY       CLOUDY    75  69  82 CALM      29.93S
$$

WESTERN NORTH TEXAS

CITY           SKY/WX    TMP DP  RH WIND       PRES   REMARKS
WICHITA FALLS  CLOUDY    74  70  87 E6        29.93R
VERNON         CLOUDY    75  68  78 CALM      29.96R
BRECKENRIDGE   CLOUDY    75  74  98 CALM      29.94R FOG
COMANCHE       CLOUDY    69  69  99 CALM      29.95R
$$

CENTRAL AND SOUTH CENTRAL TEXAS

CITY           SKY/WX    TMP DP  RH WIND       PRES   REMARKS
AUSTIN/BERGSTM CLOUDY    76  76 100 NW5       29.91R
WACO           LGT RAIN  74  72  93 SW6       29.91R
HILLSBORO      CLOUDY    74  70  88 CALM      29.92S
TEMPLE         CLOUDY    73  70  88 CALM      29.91F
KILLEEN-GRAY   LGT RAIN  73  72  94 CALM      29.94F
FORT HOOD      CLOUDY    75  73  93 S3        29.93S
GEORGETOWN     NOT AVBL
LAGO VISTA     RAIN      73  71  93 N6        29.95R
SAN MARCOS     CLOUDY    75  70  83 NE5       29.91S
NEW BRAUNFELS  CLOUDY    75  72  90 NE9       29.89S
RANDOLPH AFB   CLOUDY    74  71  91 NE6       29.91R
SAN ANTONIO    CLOUDY    77  72  84 E9        29.90R
STINSON        CLOUDY    78  74  87 NE13G18   29.87R
PLEASANTON     NOT AVBL
LA GRANGE      CLOUDY    78  76  96 CALM      29.87R
GIDDINGS       LGT RAIN  75  73  94 CALM      29.92S
$$

EAST TEXAS

CITY           SKY/WX    TMP DP  RH WIND       PRES   REMARKS
PARIS          CLOUDY    75  66  73 SE8       29.95R
CLARKSVILLE    NOT AVBL
TYLER          MOCLDY    73  67  81 SE5       29.94R
LONGVIEW       PTCLDY    71  68  90 CALM      29.94R
PALESTINE      MOCLDY    71  70  97 CALM      29.94R
NACOGDOCHES    CLOUDY    70  68  94 E3        29.94R
$$

TEXAS HILL COUNTRY AND EDWARDS PLATEAU

CITY           SKY/WX    TMP DP  RH WIND       PRES   REMARKS
LLANO          CLOUDY    72  72 100 S5        29.98S FOG
HORSESHOE BAY  RAIN      72  72 100 N5        29.96R
KERRVILLE      CLOUDY    72  67  85 CALM      29.96R
FREDERICKSBRG  CLOUDY    73  66  81 E9        29.97R
ROCKSPRINGS    CLOUDY    77  70  78 NE12      29.96R
HONDO          LGT RAIN  85  69  58 E17       29.89R
UVALDE         MOCLDY    85  69  59 E7        29.85R
DEL RIO        CLOUDY    87  70  56 SE7       29.81S
$$

SOUTHEAST TEXAS

CITY           SKY/WX    TMP DP  RH WIND       PRES   REMARKS
COLLEGE STN    CLOUDY    75  74  96 E3        29.89R
CALDWELL       LGT RAIN  75  75 100 CALM      29.92R
CROCKETT       CLOUDY    73  73 100 E3        29.95R FOG
BRENHAM        CLOUDY    78  76  94 SE3       29.89R
HUNTSVILLE     CLOUDY    75  72  90 CALM      29.91R
CONROE         CLOUDY    73  72  96 CALM      29.91R
HOUSTON BUSH   CLOUDY    75  73  93 CALM      29.88R
HOUSTON HOBBY  CLOUDY    76  73  91 CALM      29.87R
PERLAND        CLOUDY    77  74  90 CALM      29.89R
WHARTON        CLOUDY    76  74  93 CALM      29.88S
$$

THE UPPER TEXAS COAST

CITY           SKY/WX    TMP DP  RH WIND       PRES   REMARKS
ORANGE         MOCLDY   N/A N/A N/A CALM      29.89R
PORT ARTHUR    LGT RAIN  75  73  93 CALM      29.87R
GALVESTON      MOCLDY    78  74  87 SE9       29.88R
ANGLETON       CLOUDY    75  73  93 CALM      29.87R
BAY CITY       MOCLDY   N/A N/A N/A E3        29.87S
$$

TEXAS COASTAL BEND, RIO GRANDE PLAINS DEEP SOUTH TEXAS

CITY           SKY/WX    TMP DP  RH WIND       PRES   REMARKS
VICTORIA       MOCLDY    81  79  94 E6        29.86R
BEEVILLE       FAIR      81  75  83 SE8       29.85R
ROCKPORT       CLEAR     84  76  76 SE10      29.85R
PORT ARANSAS   PTCLDY    83  76  79 SE8G17    29.84R
PORT LAVACA    MOCLDY    80  77  91 SE3       29.85S
CORPUS CHRISTI PTCLDY    81  75  82 SE10      29.84R
KINGSVILLE NAS PTCLDY    79  78  97 SE10      29.83R
COTULLA        MOCLDY    87  70  56 SE12      29.82R
LAREDO         CLEAR     86  73  64 SE10      29.84R
BROWNSVILLE    PTCLDY    81  77  88 SE5       29.83R
PORT ISABEL    PTCLDY    83  77  82 SE12      29.83R
HEBBRONVILLE     N/A     81  73  76 E7        29.85R
MCALLEN        CLEAR     81  76  84 SE6       29.83R
WESLACO        CLEAR     81  74  79 SE5       29.82R
FALFURRIAS     CLEAR    N/A N/A N/A SE7       29.83R
EDINBURG       CLEAR     82  75  77 SE7       29.82R
$$



USA.gov is the U.S. government's official web portal to all federal, state and local government web resources and services.